Powrót do katalogu

CZ-3C DEB

LostGTO
NORAD 40178·DEBRIS·🇨🇳 China

Wystrzelony Oct 31, 2010 z Xichang Satellite Launch Center

Loading…

TLE

NieaktualneSource: Space-Track

Epoka: Jul 27, 2026, 11:23 UTC

1 40178U 10057AG  26208.47488934  .00001133  00000-0  47210-1 0  9991
2 40178  19.1043 276.9769 7229315 236.6933  10.0273  2.09831082 33010

Śledź CZ-3C DEB w czasie rzeczywistym z AllMySat

Download on the App Store